{"data":{"norad_id":63572,"epoch":"2026-05-24T15:35:51.144864Z","epoch_age_seconds":95356,"freshness":"FRESH","line1":"1 63572U 25076D   26144.64989751  .00016018  00000+0  59010-3 0  9992","line2":"2 63572  42.9998 253.0531 0001618 277.4072  82.6596 15.27592424 63444","mean_motion":15.27592424,"eccentricity":0.0001618,"inclination_deg":42.9998,"raan_deg":253.0531,"arg_perigee_deg":277.4072,"mean_anomaly_deg":82.6596,"bstar":0.0005901,"rev_number":6344,"period_min":94.26598203658,"perigee_km":481.90176047517,"apogee_km":484.12202825739,"semimajor_km":6861.1488943663,"source":"CELESTRAK","updated_at":"2026-05-25T13:38:20.046057Z"}}